Simultaneous Nadir Overpasses (SNOs) Predictions

Prediction of SNOs between AQUA and METOP-A Satellite Orbit:

Table of predicted SNOs for the next 14.0 days since TLE Epoch: 9/11/2020
Index Date (AQUA) Time (AQUA) Lat,Lon (AQUA) SZA (AQUA ) Date (METOP-A) Time (METOP-A) Lat,Lon (METOP-A) SZA (METOP-A ) Distance(km) Time Diff (sec)
1 09/14/2020 01:31:21 76.54, 144.29 73.47 09/14/2020 01:30:24 76.57, 144.28 73.52 3.95 57
2 09/14/2020 02:20:48 -76.59, -48.24 106.46 09/14/2020 02:21:05 -76.61, -48.26 106.44 2.66 17
3 09/16/2020 21:05:37 76.59,-149.44 74.60 09/16/2020 21:04:48 76.56,-149.44 74.58 3.35 49
4 09/16/2020 21:55:04 -76.63, 18.06 105.35 09/16/2020 21:55:29 -76.60, 18.04 105.38 3.50 25
5 09/19/2020 16:39:52 76.59, -83.02 75.68 09/19/2020 16:39:11 76.59, -82.99 75.68 1.12 41
6 09/19/2020 17:29:19 -76.63, 84.50 104.27 09/19/2020 17:29:52 -76.63, 84.49 104.27 0.13 33
7 09/22/2020 12:14:06 76.60, -16.62 76.77 09/22/2020 12:13:33 76.61, -16.55 76.79 2.18 33
8 09/22/2020 13:03:33 -76.63, 150.92 103.18 09/22/2020 13:04:14 -76.66, 150.95 103.17 3.08 41
9 09/25/2020 07:48:21 76.62, 49.77 77.87 09/25/2020 07:47:57 76.60, 49.73 77.86 2.72 24
